Weather reports worldwide

Advertisment
Loch Glascarnoch, United Kingdom (3031): temperature & dewpoint: 31.03.2020 14:00:00 - 06.04.2020 14:00:00 (BST)Loch Glascarnoch, United Kingdom (3031): temperature -20cm & temperature -100cm: 31.03.2020 14:00:00 - 06.04.2020 14:00:00 (BST)Loch Glascarnoch, United Kingdom (3031): wind speed & gusts: 31.03.2020 14:00:00 - 06.04.2020 14:00:00 (BST)Loch Glascarnoch, United Kingdom (3031): wind direction: 31.03.2020 14:00:00 - 06.04.2020 14:00:00 (BST)Loch Glascarnoch, United Kingdom (3031): reduced air pressure: 31.03.2020 14:00:00 - 06.04.2020 14:00:00 (BST)Loch Glascarnoch, United Kingdom (3031): visibility: 31.03.2020 14:00:00 - 06.04.2020 14:00:00 (BST)Loch Glascarnoch, United Kingdom (3031): sunshine duration: 31.03.2020 14:00:00 - 06.04.2020 14:00:00 (BST)Loch Glascarnoch, United Kingdom (3031): precipitation: 31.03.2020 14:00:00 - 06.04.2020 14:00:00 (BST)
Date & Time tt [°C] td [°C] tt -20cm [°C] tt -100cm [°C] ff [km/h] ff [kn] fx [km/h] fx [kn] dd ppp [hPa] vv [km] sd [min] rr [mm]
06.04.2020 14:00:00 6,9 1,9 - - 44 24 68 37 WSW 1007,3 7 30 0,0
06.04.2020 13:00:00 5,3 1,9 - - 41 22 65 35 W 1005,8 3,6 6 1,2
06.04.2020 12:00:00 6,5 3,2 - - 46 25 68 37 WSW 1003,2 9 6 1,2
06.04.2020 11:00:00 7,1 3,6 - - 44 24 89 48 SW 1001,1 35 24 0,0
06.04.2020 10:00:00 7,9 2,4 5,2 4,7 39 21 74 40 SW 999,7 30 48 0,0
06.04.2020 09:00:00 7,9 1,2 - - 41 22 68 37 SW 998,4 24 48 0,0
06.04.2020 08:00:00 7,8 3,1 - - 39 21 76 41 SW 997,4 35 12 0,2
06.04.2020 07:00:00 7,7 4,0 - - 37 20 59 32 SW 996,3 25 0 0,0
06.04.2020 06:00:00 8,4 4,0 - - 18 10 67 36 SSW 995,3 45 0 0,0
06.04.2020 05:00:00 8,8 4,2 - - 39 21 65 35 SW 994,5 50 0 1,8
06.04.2020 04:00:00 10,7 7,8 - - 22 12 46 25 SSE 993,2 6 0 0,2
06.04.2020 03:00:00 11,3 7,8 - - 22 12 48 26 ESE 992,3 45 0 0,0
06.04.2020 02:00:00 11,9 8,1 - - 35 19 52 28 SE 992,6 30 0 0,0
06.04.2020 01:00:00 12,1 8,0 - - 37 20 54 29 SE 993,9 19 - 0,0
06.04.2020 00:00:00 12,6 7,3 - - 35 19 54 29 SE 994,5 50 0 0,0
05.04.2020 23:00:00 12,7 6,7 - - 29 16 59 32 SE 995,3 50 0 0,0
05.04.2020 22:00:00 12,4 6,4 - - 41 22 67 36 SSE 995,9 45 0 0,0
05.04.2020 21:00:00 11,7 5,3 - - 34 18 54 29 SSE 997,0 29 0 0,0
05.04.2020 20:00:00 12,3 4,8 - - 35 19 63 34 SSE 997,8 50 0 0,0
05.04.2020 19:00:00 13,0 4,4 - - 29 16 52 28 SSE 997,9 45 18 0,0
05.04.2020 18:00:00 12,8 4,4 - - 41 22 61 33 SE 998,9 30 0 0,0
05.04.2020 17:00:00 13,9 3,4 - - 37 20 59 32 SSE 999,4 50 18 0,0
05.04.2020 16:00:00 12,9 4,1 - - 28 15 55 30 SE 1000,8 40 0 0,0
05.04.2020 15:00:00 12,9 4,5 - - 29 16 - - SE 1001,8 45 24 0,0
05.04.2020 14:00:00 11,6 4,2 - - 28 15 - - SE 1003,3 40 0 0,0
05.04.2020 13:00:00 11,4 4,0 - - 24 13 - - SE 1003,9 30 0 0,0
05.04.2020 12:00:00 10,6 3,7 - - 21 11 48 26 ESE 1005,3 30 0 0,0
05.04.2020 11:00:00 10,1 3,6 - - 28 15 - - SE 1005,7 35 0 0,0
05.04.2020 10:00:00 8,2 3,3 4,7 4,5 24 13 - - ESE 1006,9 22 0 0,0
05.04.2020 09:00:00 8,0 3,1 - - 22 12 - - E 1007,5 35 0 0,0
05.04.2020 08:00:00 7,7 2,9 - - 29 16 48 26 SE 1007,6 40 30 0,0
05.04.2020 07:00:00 5,7 3,5 - - 15 8 - - ESE 1007,7 45 0 0,0
05.04.2020 06:00:00 0,4 -0,4 - - 5 3 - - E 1008,5 30 0 0,0
05.04.2020 05:00:00 0,2 -0,7 - - 4 2 - - W 1008,4 45 0 0,0
05.04.2020 04:00:00 0,2 -1,2 - - 2 1 - - NE 1008,7 40 0 0,0
05.04.2020 03:00:00 0,5 -0,8 - - 5 3 - - WSW 1009,1 45 0 0,0
05.04.2020 02:00:00 1,5 -0,8 - - 4 2 - - N 1009,5 45 0 0,0
05.04.2020 01:00:00 4,3 0,6 - - 15 8 54 29 SSE 1009,5 50 - 0,0
05.04.2020 00:00:00 3,5 0,5 - - 18 10 - - E 1009,7 45 0 0,0
04.04.2020 23:00:00 4,8 1,0 - - 18 10 - - SE 1009,9 50 0 0,0
04.04.2020 22:00:00 5,6 1,4 - - 11 6 - - SSE 1010,3 50 0 0,0
04.04.2020 21:00:00 5,7 1,3 - - 13 7 - - SE 1010,2 50 0 0,0
04.04.2020 20:00:00 6,6 2,0 - - 9 5 - - SE 1010,2 50 0 0,0
04.04.2020 19:00:00 7,3 2,6 - - 4 2 - - S 1010,4 45 0 0,0
04.04.2020 18:00:00 7,6 2,6 - - 11 6 - - SW 1010,5 50 0 0,0
04.04.2020 17:00:00 7,9 2,1 - - 9 5 - - ESE 1010,3 50 0 0,0
04.04.2020 16:00:00 7,7 1,8 - - 5 3 - - WSW 1010,9 50 0 0,0
04.04.2020 15:00:00 7,4 1,6 - - 16 9 - - SW 1011,7 45 0 0,0
04.04.2020 14:00:00 7,7 3,1 - - 15 8 - - SW 1011,4 30 0 0,0
04.04.2020 13:00:00 7,6 2,6 - - 13 7 - - SW 1011,3 50 0 0,0
04.04.2020 12:00:00 7,1 3,4 - - 15 8 - - SW 1011,2 40 0 0,0
04.04.2020 11:00:00 6,1 3,8 - - 15 8 - - SW 1011,3 12 0 0,0
04.04.2020 10:00:00 5,7 3,8 4,7 4,5 11 6 - - WSW 1011,1 12 0 0,0
04.04.2020 09:00:00 5,7 3,2 - - 11 6 - - SW 1010,6 28 0 0,0
04.04.2020 08:00:00 5,1 2,9 - - 11 6 - - WSW 1010,4 45 0 0,2
04.04.2020 07:00:00 4,4 3,1 - - 8 4 - - SW 1010,3 30 0 0,0
04.04.2020 06:00:00 4,3 2,9 - - 5 3 - - NW 1010,0 14 0 0,6
04.04.2020 05:00:00 4,2 2,5 - - 9 5 - - SW 1010,0 10 0 0,8
04.04.2020 04:00:00 4,2 2,6 - - 13 7 - - SSW 1010,3 5 0 0,2
04.04.2020 03:00:00 4,3 1,7 - - 11 6 - - SW 1010,7 50 0 0,0
04.04.2020 02:00:00 3,8 0,9 - - 8 4 - - NW 1011,0 45 0 0,0
04.04.2020 01:00:00 3,3 0,9 - - 9 5 - - SSW 1011,3 50 - 0,0
04.04.2020 00:00:00 3,0 0,8 - - 5 3 - - SSW 1011,4 45 0 0,0
03.04.2020 23:00:00 3,1 0,3 - - 8 4 - - S 1011,4 50 0 0,0
03.04.2020 22:00:00 2,4 0,1 - - 11 6 - - SW 1011,6 50 0 0,0
03.04.2020 21:00:00 3,2 -0,3 - - 9 5 - - SW 1011,3 50 0 0,0
03.04.2020 20:00:00 3,6 -0,4 - - 8 4 - - W 1011,1 50 0 0,0
03.04.2020 19:00:00 4,3 -1,4 - - 11 6 - - W 1010,9 45 0 0,0
03.04.2020 18:00:00 4,7 -0,9 - - 15 8 - - W 1010,7 50 0 0,0
03.04.2020 17:00:00 4,5 -0,1 - - 18 10 - - W 1010,8 50 6 0,0
03.04.2020 16:00:00 5,3 -0,4 - - 22 12 - - W 1010,5 45 18 0,0
03.04.2020 15:00:00 4,7 -1,3 - - 26 14 - - W 1010,7 50 0 0,0
03.04.2020 14:00:00 4,8 0,0 - - 18 10 - - WSW 1010,7 40 12 0,0
03.04.2020 13:00:00 3,6 -0,2 - - 18 10 - - W 1011,0 35 0 0,0
03.04.2020 12:00:00 2,3 -1,5 - - 22 12 - - WSW 1011,0 4,0 0 0,0
03.04.2020 11:00:00 3,4 -1,7 - - 22 12 - - W 1010,5 40 54 0,0
03.04.2020 10:00:00 2,7 -2,2 4,5 4,5 26 14 - - W 1010,3 35 54 0,2
03.04.2020 09:00:00 0,8 -2,1 - - 5 3 - - W 1010,3 40 0 0,0
03.04.2020 08:00:00 -0,5 -2,9 - - 2 1 - - SSE 1010,4 35 0 0,0
03.04.2020 07:00:00 0,0 -2,5 - - 18 10 - - WNW 1010,2 50 0 0,0
03.04.2020 06:00:00 -0,4 -2,2 - - 11 6 - - W 1010,3 45 0 0,0
03.04.2020 05:00:00 -0,3 -3,2 - - 18 10 - - W 1010,3 50 0 0,0
03.04.2020 04:00:00 -1,1 -3,0 - - 13 7 - - WNW 1010,3 28 0 0,0
03.04.2020 03:00:00 -0,4 -2,4 - - 18 10 - - W 1010,5 40 0 0,0
03.04.2020 02:00:00 -0,9 -2,8 - - 21 11 - - W 1010,8 35 0 0,0
03.04.2020 01:00:00 -1,1 -2,2 - - 22 12 - - WNW 1010,9 35 - 0,0
03.04.2020 00:00:00 0,3 -2,1 - - 24 13 - - WNW 1010,7 40 0 0,0
02.04.2020 23:00:00 -0,3 -1,3 - - 21 11 48 26 WNW 1011,0 30 0 0,0
02.04.2020 22:00:00 1,1 -2,5 - - 35 19 46 25 W 1010,6 27 0 0,0
02.04.2020 21:00:00 0,3 -2,4 - - 21 11 - - WNW 1010,8 27 0 0,0
02.04.2020 20:00:00 0,9 -3,4 - - 29 16 - - W 1010,7 35 6 0,2
02.04.2020 19:00:00 1,5 -1,7 - - 26 14 57 31 WNW 1010,5 30 6 0,0
02.04.2020 18:00:00 1,8 -3,3 - - 31 17 54 29 NW 1010,2 6 6 0,0
02.04.2020 17:00:00 2,2 -2,0 - - 41 22 59 32 WNW 1010,0 30 6 0,0
02.04.2020 16:00:00 3,2 -5,4 - - 39 21 55 30 WNW 1009,2 40 18 0,0
02.04.2020 15:00:00 3,7 -3,2 - - 35 19 59 32 WNW 1008,7 15 36 0,0
02.04.2020 14:00:00 2,3 -1,9 - - 35 19 55 30 NW 1008,8 20 0 0,2
02.04.2020 13:00:00 3,1 -3,4 - - 42 23 59 32 WNW 1008,1 26 0 0,0
02.04.2020 12:00:00 2,1 -1,9 - - 41 22 63 34 WNW 1007,7 19 0 0,0
02.04.2020 11:00:00 0,6 -0,9 - - 39 21 70 38 WNW 1007,8 4,3 0 0,6
02.04.2020 10:00:00 1,5 -0,5 4,7 4,7 44 24 80 43 WNW 1006,7 6 0 1,4
02.04.2020 09:00:00 3,0 0,1 - - 39 21 72 39 W 1005,2 13 0 0,2
02.04.2020 08:00:00 3,1 0,1 - - 41 22 65 35 W 1005,5 13 0 0,8
02.04.2020 07:00:00 3,3 1,7 - - 39 21 74 40 W 1005,5 3,2 0 0,4
02.04.2020 06:00:00 5,0 1,9 - - 48 26 80 43 W 1004,9 20 0 0,2
02.04.2020 05:00:00 5,1 2,3 - - 55 30 83 45 W 1005,2 4,4 0 0,2
02.04.2020 04:00:00 6,1 2,9 - - 54 29 72 39 W 1005,8 15 0 0,0
02.04.2020 03:00:00 5,8 2,2 - - 35 19 67 36 W 1007,5 12 0 0,0
02.04.2020 02:00:00 5,4 0,9 - - 41 22 76 41 W 1009,5 23 0 0,0
02.04.2020 01:00:00 5,3 1,7 - - 41 22 61 33 W 1010,5 25 - 0,0
02.04.2020 00:00:00 4,8 0,7 - - 59 32 83 45 W 1011,0 30 0 0,0
01.04.2020 23:00:00 4,8 1,0 - - 48 26 63 34 W 1011,4 23 0 0,0
01.04.2020 22:00:00 4,6 0,4 - - 22 12 52 28 WNW 1014,1 17 0 0,0
01.04.2020 21:00:00 4,2 0,5 - - 35 19 48 26 W 1014,4 15 0 0,0
01.04.2020 20:00:00 4,6 1,1 - - 13 7 - - W 1015,4 16 0 0,0
01.04.2020 19:00:00 5,4 1,5 - - 26 14 - - WNW 1015,5 20 12 0,0
01.04.2020 18:00:00 6,9 3,4 - - 35 19 55 30 WNW 1015,4 21 36 0,0
01.04.2020 17:00:00 7,5 4,8 - - 34 18 48 26 W 1015,4 29 12 0,0
01.04.2020 16:00:00 6,8 5,2 - - 35 19 55 30 WNW 1016,2 10 0 1,2
01.04.2020 15:00:00 7,2 6,1 - - 39 21 61 33 W 1016,6 5 0 1,0
01.04.2020 14:00:00 6,7 6,0 - - 24 13 - - WNW 1016,6 3,2 0 0,6
01.04.2020 13:00:00 6,5 5,1 - - 29 16 50 27 W 1017,3 8 0 0,8
01.04.2020 12:00:00 5,8 3,7 - - 35 19 52 28 W 1017,8 6 0 0,8
01.04.2020 11:00:00 4,9 3,1 - - 26 14 - - W 1018,9 7 0 0,8
01.04.2020 10:00:00 4,9 2,9 4,9 4,5 28 15 - - W 1019,7 8 0 0,2
01.04.2020 09:00:00 4,3 2,2 - - 9 5 - - WNW 1020,8 35 0 0,0
01.04.2020 08:00:00 4,6 0,4 - - 24 13 48 26 W 1021,2 40 0 0,0
01.04.2020 07:00:00 4,4 0,7 - - 29 16 - - W 1021,5 35 0 0,0
01.04.2020 06:00:00 4,4 0,7 - - 31 17 46 25 W 1022,2 40 0 0,0
01.04.2020 05:00:00 4,1 0,4 - - 18 10 - - W 1023,0 40 0 0,0
01.04.2020 04:00:00 4,2 1,1 - - 24 13 - - W 1023,8 45 0 0,0
01.04.2020 03:00:00 3,8 1,7 - - 18 10 - - W 1025,1 40 0 0,0
01.04.2020 02:00:00 3,6 1,9 - - 18 10 - - WNW 1026,0 35 0 0,0
01.04.2020 01:00:00 3,3 1,9 - - 22 12 61 33 WNW 1027,2 29 - 0,0
01.04.2020 00:00:00 3,9 1,8 - - 21 11 46 25 W 1027,9 29 0 0,0
31.03.2020 23:00:00 4,2 2,0 - - 24 13 - - W 1028,7 26 0 0,0
31.03.2020 22:00:00 3,9 2,0 - - 16 9 - - WNW 1029,6 30 0 0,2
31.03.2020 21:00:00 4,5 1,2 - - 18 10 - - W 1030,4 28 0 0,0
31.03.2020 20:00:00 4,8 2,4 - - 16 9 - - W 1030,9 22 0 0,0
31.03.2020 19:00:00 5,4 2,7 - - 21 11 - - WNW 1031,2 21 0 0,0
31.03.2020 18:00:00 5,8 2,7 - - 22 12 - - WNW 1031,5 18 0 0,0
31.03.2020 17:00:00 6,1 2,6 - - 26 14 - - WNW 1032,1 21 0 -
31.03.2020 16:00:00 6,2 2,2 - - 26 14 - - WNW 1032,7 30 0 0,0
31.03.2020 15:00:00 6,2 3,2 - - 22 12 - - W 1033,1 26 0 0,0
31.03.2020 14:00:00 6,1 2,0 - - 29 16 - - WNW 1033,6 21 0 0,0

tt = temperature
td = dewpoint
tt -20cm = temperature -20cm
tt -100cm = temperature -100cm
ff = wind speed
fx = gusts
dd = wind direction
ppp = reduced air pressure
vv = visibility
sd = sunshine duration
rr = precipitation

Next stations